RYR215 EBCI-LOWS

Flight info

Callsign RYR215
Flight time 1h 2m
Altitude 37000
Route SOPOK Y863 ROPUV L607 UBIDU L984 RUDUS T109 HAREM T104 WLD T702 OLETU L603 EBEDA L173 TITIG TITIG2R
Aircraft B738/M-SDE2E3FGHIRWXY/LB1

Departure

Time 2026-05-08 13:59
Airport Brussels South Charleroi Airport (EBCI)

Arrival

Time 2026-05-08 15:01
Airport Salzburg Airport (LOWS)
Time Latitude Longitude Altitude Speed Heading
2026-05-08 13:24 50.46823 4.46930 612 ft 0 kts 335°
2026-05-08 13:44 50.46818 4.46933 612 ft 4 kts 335°
2026-05-08 13:44 50.46795 4.46949 612 ft 2 kts 335°
2026-05-08 13:44 50.46778 4.46966 612 ft 4 kts 290°
2026-05-08 13:45 50.46781 4.46998 612 ft 4 kts 245°
2026-05-08 13:45 50.46787 4.47021 612 ft 0 kts 245°
2026-05-08 13:49 50.46786 4.47018 612 ft 1 kts 245°
2026-05-08 13:49 50.46782 4.47002 612 ft 2 kts 245°
2026-05-08 13:49 50.46774 4.46974 615 ft 4 kts 245°
2026-05-08 13:49 50.46762 4.46934 612 ft 4 kts 245°
2026-05-08 13:50 50.46750 4.46893 612 ft 4 kts 245°
2026-05-08 13:50 50.46739 4.46853 620 ft 4 kts 245°
2026-05-08 13:50 50.46727 4.46815 612 ft 4 kts 245°
2026-05-08 13:50 50.46711 4.46782 622 ft 4 kts 212°
2026-05-08 13:51 50.46685 4.46776 612 ft 4 kts 175°
2026-05-08 13:51 50.46660 4.46789 623 ft 4 kts 158°
2026-05-08 13:51 50.46636 4.46803 612 ft 4 kts 161°
2026-05-08 13:51 50.46612 4.46795 623 ft 4 kts 212°
2026-05-08 13:52 50.46597 4.46762 623 ft 5 kts 241°
2026-05-08 13:52 50.46570 4.46674 612 ft 10 kts 245°
2026-05-08 13:52 50.46540 4.46574 612 ft 10 kts 246°
2026-05-08 13:52 50.46513 4.46478 623 ft 10 kts 246°
2026-05-08 13:53 50.46487 4.46384 625 ft 9 kts 246°
2026-05-08 13:53 50.46460 4.46292 622 ft 9 kts 245°
2026-05-08 13:53 50.46433 4.46203 612 ft 9 kts 245°
2026-05-08 13:53 50.46405 4.46104 622 ft 11 kts 245°
2026-05-08 13:54 50.46373 4.45993 612 ft 12 kts 245°
2026-05-08 13:54 50.46339 4.45874 615 ft 12 kts 245°
2026-05-08 13:54 50.46302 4.45746 612 ft 13 kts 245°
2026-05-08 13:54 50.46263 4.45617 622 ft 13 kts 245°
2026-05-08 13:55 50.46225 4.45485 617 ft 14 kts 245°
2026-05-08 13:55 50.46183 4.45343 616 ft 15 kts 245°
2026-05-08 13:55 50.46095 4.45042 612 ft 15 kts 245°
2026-05-08 13:56 50.46054 4.44897 622 ft 14 kts 246°
2026-05-08 13:56 50.46014 4.44759 622 ft 14 kts 245°
2026-05-08 13:56 50.45976 4.44629 624 ft 13 kts 246°
2026-05-08 13:56 50.45939 4.44500 625 ft 13 kts 243°
2026-05-08 13:57 50.45891 4.44388 620 ft 12 kts 232°
2026-05-08 13:57 50.45839 4.44283 620 ft 12 kts 232°
2026-05-08 13:57 50.45788 4.44181 622 ft 12 kts 232°
2026-05-08 13:57 50.45739 4.44081 623 ft 11 kts 232°
2026-05-08 13:58 50.45696 4.43998 624 ft 8 kts 222°
2026-05-08 13:58 50.45642 4.43994 616 ft 8 kts 146°
2026-05-08 13:58 50.45635 4.44074 623 ft 8 kts 67°
2026-05-08 13:58 50.45693 4.44277 619 ft 58 kts 65°
2026-05-08 13:59 50.45977 4.45257 614 ft 135 kts 66°
2026-05-08 13:59 50.46447 4.46867 835 ft 176 kts 65°
2026-05-08 13:59 50.46963 4.48531 1932 ft 164 kts 58°
2026-05-08 13:59 50.47673 4.49900 2906 ft 164 kts 40°
2026-05-08 14:00 50.48642 4.50929 3629 ft 171 kts 35°
2026-05-08 14:00 50.49558 4.52200 4283 ft 186 kts 49°
2026-05-08 14:00 50.50393 4.53877 4845 ft 201 kts 56°
2026-05-08 14:00 50.51212 4.55727 5373 ft 213 kts 57°
2026-05-08 14:01 50.52093 4.57636 5899 ft 224 kts 54°
2026-05-08 14:01 50.53078 4.59710 6246 ft 250 kts 54°
2026-05-08 14:01 50.54173 4.61949 6802 ft 265 kts 53°
2026-05-08 14:01 50.55322 4.64252 7599 ft 270 kts 52°
2026-05-08 14:02 50.56116 4.65820 8169 ft 271 kts 52°
2026-05-08 14:02 50.57486 4.68510 9120 ft 276 kts 52°
2026-05-08 14:02 50.58696 4.70921 9808 ft 286 kts 53°
2026-05-08 14:02 50.59921 4.73447 10454 ft 296 kts 53°
2026-05-08 14:03 50.61210 4.76109 10649 ft 323 kts 53°
2026-05-08 14:03 50.62626 4.79024 10851 ft 347 kts 54°
2026-05-08 14:03 50.63641 4.82565 11055 ft 366 kts 81°
2026-05-08 14:03 50.63538 4.86573 11648 ft 371 kts 105°
2026-05-08 14:04 50.62541 4.90317 12367 ft 373 kts 122°
2026-05-08 14:04 50.61142 4.93784 13075 ft 377 kts 125°
2026-05-08 14:04 50.59662 4.97221 13807 ft 381 kts 126°
2026-05-08 14:04 50.58151 5.00680 14562 ft 385 kts 126°
2026-05-08 14:05 50.56629 5.04180 15318 ft 389 kts 126°
2026-05-08 14:05 50.55106 5.07714 16053 ft 393 kts 126°
2026-05-08 14:05 50.53578 5.11289 16752 ft 397 kts 126°
2026-05-08 14:05 50.52034 5.14919 17452 ft 401 kts 126°
2026-05-08 14:06 50.50482 5.18578 18136 ft 404 kts 126°
2026-05-08 14:06 50.48933 5.22231 18780 ft 408 kts 126°
2026-05-08 14:06 50.47350 5.25963 19400 ft 412 kts 126°
2026-05-08 14:06 50.45752 5.29724 20002 ft 416 kts 126°
2026-05-08 14:07 50.44138 5.33519 20594 ft 420 kts 126°
2026-05-08 14:07 50.42509 5.37343 21148 ft 423 kts 126°
2026-05-08 14:07 50.40863 5.41199 21693 ft 427 kts 126°
2026-05-08 14:07 50.39202 5.45086 22211 ft 430 kts 126°
2026-05-08 14:08 50.37527 5.48998 22726 ft 434 kts 126°
2026-05-08 14:08 50.35839 5.52935 23216 ft 438 kts 126°
2026-05-08 14:08 50.34129 5.56919 23687 ft 441 kts 126°
2026-05-08 14:08 50.32434 5.60863 24128 ft 444 kts 126°
2026-05-08 14:09 50.30699 5.64895 24574 ft 448 kts 126°
2026-05-08 14:09 50.28950 5.68954 25029 ft 450 kts 126°
2026-05-08 14:09 50.27195 5.73016 25483 ft 452 kts 126°
2026-05-08 14:09 50.25595 5.77267 25879 ft 457 kts 118°
2026-05-08 14:10 50.24412 5.81910 26270 ft 463 kts 108°
2026-05-08 14:10 50.23588 5.86782 26671 ft 466 kts 106°
2026-05-08 14:10 50.22810 5.91709 27044 ft 468 kts 106°
2026-05-08 14:10 50.22021 5.96658 27408 ft 470 kts 106°
2026-05-08 14:11 50.21205 6.01613 27764 ft 472 kts 107°
2026-05-08 14:11 50.20365 6.06586 28101 ft 474 kts 107°
2026-05-08 14:11 50.19513 6.11565 28400 ft 477 kts 107°
2026-05-08 14:11 50.18735 6.16616 28662 ft 482 kts 101°
2026-05-08 14:12 50.18383 6.21829 28971 ft 485 kts 93°
2026-05-08 14:12 50.18546 6.27099 29388 ft 485 kts 85°
2026-05-08 14:12 50.18912 6.32314 29866 ft 483 kts 84°
2026-05-08 14:12 50.19296 6.37511 30305 ft 481 kts 85°
2026-05-08 14:13 50.19662 6.42706 30686 ft 481 kts 85°
2026-05-08 14:13 50.20003 6.47897 31042 ft 481 kts 85°
2026-05-08 14:13 50.20322 6.53032 31396 ft 481 kts 86°
2026-05-08 14:13 50.20636 6.58229 31783 ft 480 kts 86°
2026-05-08 14:14 50.20847 6.61733 32038 ft 479 kts 86°
2026-05-08 14:14 50.21157 6.66914 32371 ft 479 kts 86°
2026-05-08 14:14 50.21561 6.73773 32814 ft 479 kts 86°
2026-05-08 14:14 50.21862 6.78943 33175 ft 478 kts 86°
2026-05-08 14:15 50.22142 6.84108 33533 ft 476 kts 89°
2026-05-08 14:15 50.22090 6.89255 33816 ft 475 kts 96°
2026-05-08 14:15 50.21910 6.92725 34015 ft 474 kts 97°
2026-05-08 14:15 50.21494 6.99509 34431 ft 474 kts 97°
2026-05-08 14:16 50.21282 7.02904 34610 ft 474 kts 97°
2026-05-08 14:16 50.20974 7.08050 34843 ft 476 kts 97°
2026-05-08 14:16 50.20682 7.13212 35084 ft 477 kts 97°
2026-05-08 14:16 50.20400 7.18381 35367 ft 477 kts 96°
2026-05-08 14:17 50.20120 7.23534 35654 ft 476 kts 96°
2026-05-08 14:17 50.19836 7.28694 35889 ft 478 kts 97°
2026-05-08 14:17 50.19404 7.33829 36061 ft 478 kts 104°
2026-05-08 14:17 50.18506 7.38813 36270 ft 477 kts 110°
2026-05-08 14:18 50.17447 7.43707 36532 ft 476 kts 111°
2026-05-08 14:18 50.16360 7.48591 36777 ft 476 kts 111°
2026-05-08 14:18 50.15285 7.53449 37115 ft 473 kts 111°
2026-05-08 14:19 50.13181 7.63163 37106 ft 475 kts 110°
2026-05-08 14:19 50.11107 7.72885 37090 ft 470 kts 110°
2026-05-08 14:20 50.09040 7.82535 37099 ft 468 kts 110°
2026-05-08 14:20 50.07010 7.92159 37098 ft 467 kts 107°
2026-05-08 14:21 50.05593 8.02031 37112 ft 468 kts 103°
2026-05-08 14:21 50.04046 8.11691 37107 ft 466 kts 110°
2026-05-08 14:22 50.01938 8.21227 37107 ft 467 kts 111°
2026-05-08 14:22 49.99807 8.30745 37102 ft 468 kts 111°
2026-05-08 14:23 49.97697 8.40345 37100 ft 470 kts 111°
2026-05-08 14:23 49.95581 8.49967 37103 ft 471 kts 111°
2026-05-08 14:24 49.92766 8.59080 37109 ft 468 kts 122°
2026-05-08 14:24 49.89473 8.67786 37106 ft 468 kts 123°
2026-05-08 14:25 49.86176 8.76505 37100 ft 469 kts 123°
2026-05-08 14:25 49.82914 8.85242 37101 ft 469 kts 122°
2026-05-08 14:26 49.79653 8.93996 37103 ft 469 kts 122°
2026-05-08 14:26 49.76385 9.02742 37089 ft 469 kts 123°
2026-05-08 14:27 49.73108 9.11479 37091 ft 470 kts 123°
2026-05-08 14:27 49.69824 9.20200 37093 ft 469 kts 123°
2026-05-08 14:28 49.66534 9.28912 37104 ft 469 kts 123°
2026-05-08 14:28 49.63263 9.37547 37094 ft 469 kts 123°
2026-05-08 14:29 49.59527 9.45708 37113 ft 464 kts 134°
2026-05-08 14:29 49.55234 9.53137 37106 ft 464 kts 135°
2026-05-08 14:30 49.50938 9.60556 37105 ft 464 kts 134°
2026-05-08 14:30 49.46674 9.68018 37105 ft 465 kts 134°
2026-05-08 14:31 49.42358 9.75417 37102 ft 464 kts 135°
2026-05-08 14:31 49.37999 9.82745 37099 ft 464 kts 135°
2026-05-08 14:32 49.31460 9.93702 37109 ft 464 kts 135°
2026-05-08 14:32 49.27100 10.01000 37105 ft 464 kts 135°
2026-05-08 14:33 49.22732 10.08292 37097 ft 465 kts 136°
2026-05-08 14:33 49.18386 10.15529 37109 ft 465 kts 136°
2026-05-08 14:34 49.14001 10.22809 37101 ft 465 kts 136°
2026-05-08 14:34 49.09618 10.30066 37095 ft 465 kts 136°
2026-05-08 14:35 49.05224 10.37320 37094 ft 465 kts 136°
2026-05-08 14:35 49.00827 10.44560 36989 ft 467 kts 136°
2026-05-08 14:36 48.98616 10.48191 36717 ft 466 kts 136°
2026-05-08 14:36 48.96422 10.51793 36469 ft 462 kts 136°
2026-05-08 14:36 48.94236 10.55375 36221 ft 464 kts 137°
2026-05-08 14:36 48.92029 10.58984 35979 ft 468 kts 137°
2026-05-08 14:37 48.89801 10.62622 35410 ft 470 kts 137°
2026-05-08 14:37 48.87568 10.66267 34701 ft 470 kts 137°
2026-05-08 14:37 48.85341 10.69900 33949 ft 471 kts 137°
2026-05-08 14:37 48.83105 10.73539 33172 ft 471 kts 137°
2026-05-08 14:38 48.80868 10.77173 32346 ft 472 kts 138°
2026-05-08 14:38 48.78601 10.80769 31627 ft 470 kts 139°
2026-05-08 14:38 48.76331 10.84298 31058 ft 465 kts 139°
2026-05-08 14:38 48.74072 10.87794 30480 ft 461 kts 139°
2026-05-08 14:39 48.71842 10.91255 29905 ft 457 kts 139°
2026-05-08 14:39 48.69638 10.94682 29333 ft 452 kts 139°
2026-05-08 14:39 48.67451 10.98085 28750 ft 448 kts 139°
2026-05-08 14:39 48.65287 11.01449 28177 ft 444 kts 139°
2026-05-08 14:40 48.63142 11.04781 27603 ft 440 kts 139°
2026-05-08 14:40 48.61037 11.08046 27047 ft 437 kts 139°
2026-05-08 14:40 48.59039 11.11484 26471 ft 437 kts 130°
2026-05-08 14:40 48.57412 11.15364 25924 ft 437 kts 121°
2026-05-08 14:41 48.56218 11.19571 25364 ft 436 kts 112°
2026-05-08 14:41 48.55232 11.23874 24829 ft 433 kts 111°
2026-05-08 14:41 48.54324 11.27937 24308 ft 429 kts 111°
2026-05-08 14:41 48.53369 11.32180 23760 ft 426 kts 111°
2026-05-08 14:42 48.52827 11.34552 23453 ft 423 kts 111°
2026-05-08 14:42 48.51860 11.38732 22901 ft 420 kts 111°
2026-05-08 14:42 48.50890 11.42873 22365 ft 416 kts 111°
2026-05-08 14:42 48.49927 11.46964 21827 ft 413 kts 111°
2026-05-08 14:43 48.48978 11.50981 21303 ft 410 kts 111°
2026-05-08 14:43 48.48011 11.55067 20759 ft 407 kts 111°
2026-05-08 14:43 48.46986 11.58953 20231 ft 402 kts 118°
2026-05-08 14:43 48.45578 11.62542 19834 ft 394 kts 128°
2026-05-08 14:44 48.43847 11.65687 19520 ft 386 kts 134°
2026-05-08 14:44 48.42308 11.68286 19245 ft 384 kts 134°
2026-05-08 14:44 48.40508 11.71294 18927 ft 389 kts 134°
2026-05-08 14:44 48.38689 11.74339 18599 ft 392 kts 134°
2026-05-08 14:45 48.36882 11.77383 18259 ft 389 kts 134°
2026-05-08 14:45 48.35089 11.80418 17931 ft 387 kts 134°
2026-05-08 14:45 48.33311 11.83434 17612 ft 384 kts 134°
2026-05-08 14:45 48.31542 11.86437 17282 ft 383 kts 134°
2026-05-08 14:46 48.29783 11.89423 16974 ft 381 kts 134°
2026-05-08 14:46 48.28025 11.92402 16658 ft 380 kts 134°
2026-05-08 14:46 48.26275 11.95364 16332 ft 378 kts 134°
2026-05-08 14:46 48.24534 11.98310 16016 ft 377 kts 134°
2026-05-08 14:47 48.22797 12.01246 15702 ft 376 kts 134°
2026-05-08 14:47 48.21065 12.04171 15383 ft 374 kts 134°
2026-05-08 14:47 48.19356 12.07051 15073 ft 373 kts 134°
2026-05-08 14:47 48.17634 12.09953 14760 ft 371 kts 133°
2026-05-08 14:48 48.16126 12.13084 14451 ft 371 kts 122°
2026-05-08 14:48 48.15015 12.16569 14140 ft 371 kts 111°
2026-05-08 14:48 48.14170 12.20205 13834 ft 369 kts 110°
2026-05-08 14:48 48.13357 12.23842 13527 ft 368 kts 110°
2026-05-08 14:49 48.12546 12.27453 13224 ft 366 kts 110°
2026-05-08 14:49 48.11721 12.31057 12911 ft 364 kts 110°
2026-05-08 14:49 48.10891 12.34623 12602 ft 363 kts 111°
2026-05-08 14:49 48.10056 12.38187 12289 ft 361 kts 110°
2026-05-08 14:50 48.09228 12.41714 11997 ft 358 kts 111°
2026-05-08 14:50 48.08406 12.45221 11687 ft 356 kts 110°
2026-05-08 14:50 48.07589 12.48709 11386 ft 354 kts 110°
2026-05-08 14:50 48.06778 12.52162 11084 ft 348 kts 110°
2026-05-08 14:51 48.05987 12.55532 10799 ft 340 kts 110°
2026-05-08 14:51 48.05316 12.58884 10510 ft 333 kts 105°
2026-05-08 14:51 48.04766 12.62221 10201 ft 327 kts 104°
2026-05-08 14:51 48.04248 12.65502 9942 ft 320 kts 104°
2026-05-08 14:52 48.03911 12.67608 9958 ft 310 kts 104°
2026-05-08 14:52 48.02907 12.73678 9845 ft 286 kts 104°
2026-05-08 14:52 48.02434 12.76473 9700 ft 278 kts 104°
2026-05-08 14:53 48.01958 12.79271 9413 ft 277 kts 105°
2026-05-08 14:53 48.01310 12.81972 9113 ft 276 kts 114°
2026-05-08 14:53 48.00514 12.84569 8830 ft 274 kts 115°
2026-05-08 14:53 47.99714 12.87152 8553 ft 272 kts 115°
2026-05-08 14:54 47.99000 12.89744 8303 ft 269 kts 105°
2026-05-08 14:54 47.98671 12.92449 8211 ft 260 kts 98°
2026-05-08 14:54 47.98444 12.95084 8106 ft 252 kts 97°
2026-05-08 14:54 47.98221 12.97640 7980 ft 245 kts 97°
2026-05-08 14:55 47.97737 13.00011 7858 ft 237 kts 124°
2026-05-08 14:55 47.96524 13.01571 7717 ft 230 kts 154°
2026-05-08 14:55 47.95028 13.02293 7563 ft 224 kts 167°
2026-05-08 14:55 47.93499 13.02744 7331 ft 224 kts 169°
2026-05-08 14:56 47.91982 13.03175 7172 ft 218 kts 169°
2026-05-08 14:56 47.90537 13.03598 7119 ft 205 kts 168°
2026-05-08 14:56 47.89178 13.04004 6954 ft 197 kts 168°
2026-05-08 14:56 47.87857 13.04402 6870 ft 185 kts 167°
2026-05-08 14:57 47.86638 13.04770 6674 ft 179 kts 167°
2026-05-08 14:57 47.85415 13.05141 6388 ft 180 kts 167°
2026-05-08 14:57 47.84192 13.05513 6116 ft 179 kts 167°
2026-05-08 14:57 47.82977 13.05883 5811 ft 177 kts 167°
2026-05-08 14:58 47.81806 13.06239 5581 ft 167 kts 167°
2026-05-08 14:58 47.80669 13.06585 5238 ft 166 kts 167°
2026-05-08 14:58 47.79557 13.06922 5039 ft 162 kts 167°
2026-05-08 14:58 47.78447 13.07236 4729 ft 160 kts 169°
2026-05-08 14:59 47.77344 13.07515 4259 ft 162 kts 169°
2026-05-08 14:59 47.75203 13.07163 3467 ft 156 kts 218°
2026-05-08 14:59 47.74584 13.05886 3123 ft 154 kts 253°
2026-05-08 15:00 47.74589 13.04322 2800 ft 149 kts 291°
2026-05-08 15:00 47.75128 13.03065 2501 ft 145 kts 321°
2026-05-08 15:00 47.76033 13.02420 2151 ft 147 kts 344°
2026-05-08 15:00 47.76987 13.01875 1813 ft 145 kts 338°
2026-05-08 15:01 47.77903 13.01299 1541 ft 141 kts 338°
2026-05-08 15:01 47.78496 13.00924 1428 ft 139 kts 338°
2026-05-08 15:01 47.79414 13.00344 1422 ft 67 kts 337°
2026-05-08 15:01 47.79568 13.00246 1421 ft 0 kts 337°
2026-05-08 15:02 47.79628 13.00208 1421 ft 23 kts 336°
2026-05-08 15:02 47.79776 13.00113 1419 ft 23 kts 336°
2026-05-08 15:02 47.79922 13.00020 1419 ft 22 kts 336°
2026-05-08 15:02 47.80063 12.99930 1419 ft 22 kts 337°
2026-05-08 15:03 47.80181 12.99856 1420 ft 17 kts 337°
2026-05-08 15:03 47.80270 12.99776 1420 ft 15 kts 298°
2026-05-08 15:03 47.80258 12.99635 1420 ft 14 kts 235°
2026-05-08 15:03 47.80172 12.99600 1419 ft 13 kts 165°
2026-05-08 15:04 47.80087 12.99649 1419 ft 13 kts 157°
2026-05-08 15:04 47.80006 12.99701 1419 ft 13 kts 156°
2026-05-08 15:04 47.79933 12.99749 1419 ft 10 kts 156°
2026-05-08 15:04 47.79871 12.99788 1419 ft 9 kts 157°
2026-05-08 15:05 47.79813 12.99825 1419 ft 9 kts 157°
2026-05-08 15:05 47.79753 12.99863 1419 ft 9 kts 157°
2026-05-08 15:05 47.79697 12.99898 1419 ft 9 kts 157°
2026-05-08 15:05 47.79641 12.99933 1419 ft 8 kts 157°
2026-05-08 15:06 47.79588 12.99967 1419 ft 8 kts 157°
2026-05-08 15:06 47.79536 12.99999 1419 ft 8 kts 157°
2026-05-08 15:06 47.79485 13.00031 1419 ft 8 kts 157°
2026-05-08 15:06 47.79436 13.00062 1419 ft 7 kts 157°
2026-05-08 15:07 47.79387 13.00082 1419 ft 7 kts 185°
2026-05-08 15:07 47.79351 13.00036 1421 ft 7 kts 238°
2026-05-08 15:07 47.79328 12.99972 1421 ft 7 kts 236°
2026-05-08 15:07 47.79286 12.99947 1421 ft 7 kts 169°
2026-05-08 15:08 47.79242 12.99974 1421 ft 7 kts 156°
2026-05-08 15:08 47.79200 13.00001 1421 ft 7 kts 157°
2026-05-08 15:08 47.79158 13.00027 1421 ft 7 kts 157°
2026-05-08 15:08 47.79116 13.00053 1421 ft 6 kts 157°
2026-05-08 15:09 47.79084 13.00095 1421 ft 6 kts 115°
2026-05-08 15:09 47.79075 13.00146 1421 ft 2 kts 103°
2026-05-08 15:09 47.79072 13.00166 1421 ft 2 kts 102°
2026-05-08 15:09 47.79069 13.00184 1421 ft 1 kts 102°
2026-05-08 15:10 47.79069 13.00187 1421 ft 0 kts 102°